Terminal Aerodrome Forecast
Issued by NWS

Home | Current Version | Previous Version | Text Only | Print | Product List | Glossary On
Versions: 1 2 3 4 5 6 7 8 9 10 11 12 13 14 15 16 17 18 19 20 21
343
FTUS43 KJKL 141140
TAFSME
TAF
KSME 141140Z 1412/1512 00000KT 3/4SM BR OVC003
     FM141600 26003KT 3SM BR OVC006
     FM142000 29003KT 4SM -RA BR OVC007
     FM142300 34004KT 3SM -DZ BR OVC007
     FM150300 34003KT 3SM -DZ BR OVC004=

USA.gov is the U.S. government's official web portal to all federal, state and local government web resources and services.